カタログに戻る

FENGYUN 1C DEB

運用中SSO
NORAD 30040·DEBRIS·🇨🇳 China

打ち上げ May 10, 1999 から Taiyuan Satellite Launch Center

Loading…

次のパス (今後24時間)

TLE

最新Source: Space-Track

元期: Sep 14, 2026, 11:56 UTC

1 30040U 99025NR  26257.49749631  .00002577  00000-0  83753-3 0  9997
2 30040  98.2255 267.4513 0031010 198.3388 323.5532 14.39344783 18786

AllMySatでFENGYUN 1C DEBをリアルタイム追跡

Download on the App Store